Regional Weather Roundup
Issued by NWS Charleston, SC

Current Version | Previous Version | Graphics & Text | Print | Product List | Glossary On
Versions: 1 2 3 4 5 6 7 8 9 10 11 12 13 14 15 16 17 18 19 20 21 22 23 24 25 26 27 28 29 30 31 32 33 34 35 36 37 38 39 40 41 42 43 44 45 46 47 48 49 50
000 ASUS42 KCHS 202212 RWRCHS Regional Weather Roundup National Weather Service Charleston SC 500 PM EST SAT JAN 20 2018 NOTE: "fair" indicates few or no clouds below 12,000 feet with no significant weather and/or obstructions to visibility. Not all stations are quality controlled. Use data with caution, especially dewpoint observations. SCZ027-030-031-034>040-042>050-202300- ...Southeast South Carolina... CITY SKY/WX TMP DP RH WIND PRES REMARKS N Charleston FAIR 59 32 36 S13 30.20R Waterfront Prk NOT AVBL Mount Pleasant FAIR 55 32 41 S9 30.21R Johns Island FAIR 54 28 37 S8 30.21F Pinopolis N/A 59 37 44 SW8 30.10R Moncks Corner FAIR 61 28 29 SW3 30.19R Summerville FAIR 61 32 33 SW3 30.20F Beaufort MCAS FAIR 55 38 52 S7 30.22R Beaufort Arpt FAIR 54 28 37 S9 30.22R HAZE Hilton Head Is CLEAR 55 25 30 S12 30.24R Walterboro FAIR 61 36 39 SW8 30.20S Allendale FAIR 63 37 39 CALM 30.19S ...Southern Midlands and Pee Dee... CITY SKY/WX TMP DP RH WIND PRES REMARKS Georgetown FAIR 55 30 38 S8 30.20R Kingstree FAIR 61 32 33 W7 30.17S Orangeburg FAIR 61 34 36 W9 30.20R Barnwell N/A 64 39 39 W6 30.20R Aiken FAIR 59 36 41 W6 30.23R Manning FAIR 61 25 25 MISG 30.19R Columbia FAIR 62 27 26 NW6 30.18S Sumter FAIR 60 31 33 W3 30.15F Florence FAIR 60 31 33 W7 30.18R Myrtle Beach FAIR 52 35 52 S10 30.18 N Myrtle Beach FAIR 50 36 58 SW13 30.17S $$ GAZ063-065-086>088-099>101-113>116-118-119-134>141-150-202300- ...Southeast Georgia... CITY SKY/WX TMP DP RH WIND PRES REMARKS Savannah Arpt FAIR 62 29 28 SW6 30.22R Hunter AAF FAIR 61 23 23 SW3 30.20R Fort Stewart FAIR 60 28 30 W5 30.21R Statesboro FAIR 64 34 32 W7 30.22R Sylvania FAIR 64 42 45 W5 30.22R Claxton FAIR 64 36 34 CALM 30.23S ...CSRA, Central and far Southeast Georgia... CITY SKY/WX TMP DP RH WIND PRES REMARKS Thomson FAIR 62 37 38 NW5 30.25R Augusta-Bush FAIR 64 37 36 NW8 30.19R Augusta-Daniel FAIR 64 37 36 NW6 30.20R Swainsboro FAIR 64 41 42 W3 30.22R Vidalia FAIR 63 41 45 W6 30.23R Eastman FAIR 64 25 22 CALM 30.26R Hazlehurst FAIR 62 24 23 S3 30.23R Alma FAIR 60 23 24 SW3 30.24R Waycross FAIR 60 13 16 CALM 30.25S Jesup FAIR 61 19 20 W3 30.25R Baxley FAIR 59 30 33 SW5 30.24R Brunswick FAIR 59 19 21 SW3 30.26R Saint Simons FAIR 51 31 46 S6 30.25R $$ SCZ027-028-034-036>038-045-046-048>050-GAZ119-141-202300- ...Lake and Supplemental Coastal Observations... STATION/POSITION TIME TEMP WIND PRES WAVE SWELL AIR SEA DIR/SP/G HT/PER HT/PER/DIR (UTC) (F) (DEG/KT/KT) (MB) (FT/S) (FT/S/D) Winyah Bay NOT AVBL Lake Murray 2120 58 200/ 5/ 6 1021.3 ACE Basin NERRS 2045 57 170/ 2 1023.0 Fort Pulaski 2148 53 46 210/ 7/ 10 1024.1R Sapelo Island 2100 55 170/ 7 1024.0 $$ ANZ835-935-AMZ111-154-330-350-352-354-370-450-454-472-202300- ...C-MAN and Buoy Observations... STATION/POSITION TIME TEMP WIND PRES WAVE SWELL AIR SEA DIR/SP/G HT/PER HT/PER/DIR (UTC) (F) (DEG/KT/KT) (MB) (FT/S) (FT/S/D) Buoy 41004 2150 59 230/ 16/ 19 1023.7R 3/ 4 2/120/10 Buoy 41008 2150 51 50 150/ 6/ 6 1024.2R 2/10 2/100/10 Folly Beach CMAN 2200 51 210/ 8/ 9 1023.6S Capers Nearshore 2108 48 220/ 12/ 17 1022.3S Fripp Nearshore 2108 47 46 200/ 8/ 12 1023.2R STATION/POSITION TIME TEMP WIND PRES WAVE SWELL AIR SEA DIR/SP/G HT/PER HT/PER/DIR (UTC) (F) (DEG/KT/KT) (MB) (FT/S) (FT/S/D) 5E St. Marys GA 2200 49 N/A 1/11 Frying Pan Buoy 2150 58 240/ 14/ 17 1022.2F 3/ 4 2/ 90/14 Buoy 41025 2150 62 240/ 23/ 27 1020.7R 6/ 6 2/ 70/10 Cape Lookout NC 2100 220/ 10/ 13 1021.1R Buoy 41002 2150 67 70 240/ 12/ 14 1023.8R 4/11 3/ 60/11 Buoy 41010 NOT AVBL St Augustine FL 2200 54 51 20/ 3/ 4 1025.4S $$

USA.gov is the U.S. government's official web portal to all federal, state and local government web resources and services.